Location: ??????
(42.0089°N, 44.3281°E)
Time: 17:26:00
(UTC+00:00)

Okean 1-7 Rocket - Pass Details

Date: 03 June 2022
Orbit: 616 x 648 km, 82.5° (Epoch: 01 July)

Event Time Altitude Azimuth Distance (km) Brightness Sun altitude
Exits shadow 00:49:26 - 232° (SW) 2,105 5.6 -6.8°
Reaches altitude 10° 00:49:50 10° 235° (SW) 1,982 5.5 -6.8°
Maximum altitude 00:53:17 22° 287° (WNW) 1,346 5.0 -6.3°
Drops below altitude 10° 00:56:45 10° 339° (NNW) 1,988 6.4 -5.8°
Sets 00:59:24 0° 355° (N) 2,898 7.5 -5.4°
